Lawton, OK

7:32 PM CST on December 10, 2016 (GMT -0600)
Lawton-Fort Sill Regional

Weather History for KLAW - November, 2012

Change the Weather History Date:

Tuesday, November 6, 2012

  Actual Average Record
Temperature  
Mean Temperature 56 °F -  
Max Temperature 79 °F 67 °F 83 °F (1989)
Min Temperature 34 °F 42 °F 23 °F (1951)
Degree Days  
Heating Degree Days 8    
Growing Degree Days 6 (Base 50)    
Moisture  
Dew Point 37 °F    
Average Humidity 56    
Maximum Humidity 89    
Minimum Humidity 24    
Precipitation  
Precipitation 0.00 in - - ()
Sea Level Pressure  
Sea Level Pressure 30.12 in    
Wind  
Wind Speed 3 mph (NW)    
Max Wind Speed 13 mph    
Max Gust Speed -    
Visibility 10 miles    
Events      
Averages and records for this station are not official NWS values.
T = Trace of Precipitation, MM = Missing Value Source: NWS Daily Summary

Daily Weather History Graph

Daily Weather History Graph

Search for Another Location

Airport or City:

Trip Planner

Search our weather history database for the weather conditions in past years. The results will help you decide how hot, cold, wet, or windy it might be!

Date:

Astronomy

Nov. 06, 2012 Rise Set
Actual Time 6:59 AM CST 5:35 PM CST
Civil Twilight 6:32 AM CST 6:01 PM CST
Nautical Twilight 6:02 AM CST 6:31 PM CST
Astronomical Twilight 5:33 AM CST 7:00 PM CST
Moon No Moon Rise 12:54 PM CST (11/6)
Length of Visible Light 11h 28m
Length of Day
10h 35m
Waning Gibbous, 53% of the Moon is Illuminated
Nov 6
Waning Gibbous
Nov 6
Last Quarter
Nov 13
New
Nov 20
First Quarter
Nov 28
Full

Hourly Weather History & Observations

Time (CST) Temp. Windchill Dew Point Humidity Pressure Visibility Wind Dir Wind Speed Gust Speed Precip Events Conditions
12:53 AM 44.1 °F 41.5 °F 35.1 °F 71% 30.12 in 10.0 mi NE 4.6 mph - N/A   Clear
1:53 AM 41.0 °F - 34.0 °F 76% 30.13 in 10.0 mi Calm Calm - N/A   Clear
2:53 AM 37.9 °F - 33.1 °F 83% 30.14 in 10.0 mi Calm Calm - N/A   Clear
3:53 AM 37.0 °F - 32.0 °F 82% 30.14 in 10.0 mi Calm Calm - N/A   Clear
4:53 AM 36.0 °F - 32.0 °F 86% 30.14 in 10.0 mi Calm Calm - N/A   Clear
6:53 AM 34.0 °F - 30.9 °F 89% 30.15 in 10.0 mi Calm Calm - N/A   Clear
7:53 AM 42.1 °F - 35.1 °F 76% 30.16 in 10.0 mi Calm Calm - N/A   Clear
8:13 AM 42.8 °F - 35.6 °F 76% 30.16 in 10.0 mi Calm Calm - N/A   Clear
8:53 AM 50.0 °F - 37.0 °F 61% 30.17 in 10.0 mi Calm Calm - N/A   Clear
9:53 AM 55.9 °F - 37.9 °F 51% 30.15 in 10.0 mi SSW 6.9 mph - N/A   Clear
10:53 AM 61.0 °F - 37.9 °F 42% 30.14 in 10.0 mi SW 8.1 mph - N/A   Clear
11:53 AM 66.0 °F - 37.0 °F 34% 30.12 in 10.0 mi SSW 8.1 mph - N/A   Clear
12:53 PM 69.1 °F - 37.9 °F 32% 30.09 in 10.0 mi WSW 9.2 mph - N/A   Clear
1:53 PM 73.0 °F - 37.9 °F 28% 30.06 in 10.0 mi WSW 6.9 mph - N/A   Clear
2:53 PM 75.9 °F - 37.0 °F 24% 30.05 in 10.0 mi Calm Calm - N/A   Clear
3:53 PM 79.0 °F - 39.0 °F 24% 30.05 in 10.0 mi North 9.2 mph - N/A   Clear
4:53 PM 75.0 °F - 39.0 °F 27% 30.06 in 10.0 mi North 12.7 mph - N/A   Clear
5:53 PM 68.0 °F - 39.0 °F 35% 30.09 in 10.0 mi NE 5.8 mph - N/A   Clear
6:53 PM 64.0 °F - 39.0 °F 40% 30.12 in 10.0 mi NNE 6.9 mph - N/A   Clear
7:53 PM 59.0 °F - 39.0 °F 48% 30.14 in 10.0 mi Calm Calm - N/A   Clear
8:53 PM 54.0 °F - 39.0 °F 57% 30.15 in 10.0 mi Calm Calm - N/A   Clear
9:53 PM 53.1 °F - 39.9 °F 61% 30.14 in 10.0 mi NE 5.8 mph - N/A   Clear
10:53 PM 46.0 °F - 37.0 °F 71% 30.15 in 10.0 mi Calm Calm - N/A   Clear
11:53 PM 44.1 °F 41.5 °F 36.0 °F 73% 30.16 in 10.0 mi West 4.6 mph - N/A   Clear